Change the Weather History Date:

Monday, December 23, 2013

  Actual Average Record
Temperature  
Mean Temperature 36 °F 31 °F  
Max Temperature 43 °F 38 °F 62 °F (1933)
Min Temperature 28 °F 25 °F -14 °F (1989)
Degree Days  
Heating Degree Days 29 34  
Month to date heating degree days 675 702  
Since 1 July heating degree days 1737 1716  
Cooling Degree Days 0 0  
Month to date cooling degree days 0 0  
Year to date cooling degree days 1179 1024  
Moisture  
Dew Point 27 °F    
Average Humidity 75    
Maximum Humidity 92    
Minimum Humidity 58    
Precipitation  
Precipitation 0.02 in 0.10 in 1.88 in (1921)
Month to date precipitation 3.94 2.20  
Year to date precipitation 41.19 38.54  
Snow  
Snow 0.00 in 0.20 in 5.40 in (1947)
Month to date snowfall 12.0 3.3  
Since 1 July snowfall 16.7 4.4  
Snow Depth 0.00 in    
Sea Level Pressure  
Sea Level Pressure 30.21 in    
Wind  
Wind Speed 12 mph (WNW)    
Max Wind Speed 21 mph    
Max Gust Speed 25 mph    
Visibility 10 miles    
Events Rain    
T = Trace of Precipitation, MM = Missing Value Source: NWS Daily Summary

Daily Weather History Graph

Daily Weather History Graph

Search for Another Location

Airport or City:

Trip Planner

Search our weather history database for the weather conditions in past years. The results will help you decide how hot, cold, wet, or windy it might be!

Date:

Astronomy

Dec. 23, 2013 Rise Set
Actual Time 7:50 AM EST 5:10 PM EST
Civil Twilight 7:20 AM EST 5:41 PM EST
Nautical Twilight 6:46 AM EST 6:15 PM EST
Astronomical Twilight 6:13 AM EST 6:48 PM EST
Moon 11:19 PM EST (12/23) 11:15 AM EST (12/23)
Length of Visible Light 10h 21m
Length of Day
9h 19m
Waning Gibbous, 68% of the Moon is Illuminated
Dec 23
Waning Gibbous
Dec 25
Last Quarter
Jan 1
New
Jan 7
First Quarter
Jan 15
Full

Hourly Weather History & Observations

Time (EST) Temp. Windchill Dew Point Humidity Pressure Visibility Wind Dir Wind Speed Gust Speed Precip Events Conditions
12:33 AM 42.8 °F 36.6 °F 37.4 °F 81% 30.01 in 10.0 mi WNW 11.5 mph - N/A   Overcast
12:51 AM 42.1 °F 35.7 °F 37.0 °F 82% 30.01 in 10.0 mi WNW 11.5 mph - N/A   Overcast
1:05 AM 42.8 °F 38.0 °F 37.4 °F 81% 30.01 in 10.0 mi WNW 8.1 mph - N/A   Overcast
1:51 AM 42.1 °F 36.6 °F 36.0 °F 79% 30.04 in 10.0 mi West 9.2 mph - N/A   Overcast
2:26 AM 41.0 °F 34.3 °F 35.6 °F 81% 30.04 in 8.0 mi West 11.5 mph - 0.01 in Rain Light Rain
2:33 AM 39.2 °F 32.0 °F 35.6 °F 87% 30.05 in 10.0 mi WNW 11.5 mph - 0.02 in Rain Light Rain
2:51 AM 39.9 °F 32.9 °F 34.0 °F 79% 30.06 in 10.0 mi WNW 11.5 mph - 0.02 in Rain Light Rain
3:51 AM 37.9 °F 30.5 °F 36.0 °F 93% 30.08 in 10.0 mi WNW 11.5 mph - 0.00 in   Overcast
3:59 AM 37.4 °F 30.3 °F 35.6 °F 93% 30.07 in 10.0 mi WNW 10.4 mph - N/A   Overcast
4:51 AM 37.9 °F 29.2 °F 35.1 °F 89% 30.09 in 10.0 mi WNW 15.0 mph - N/A   Overcast
5:19 AM 37.4 °F 28.2 °F 33.8 °F 87% 30.09 in 10.0 mi WNW 16.1 mph - N/A   Overcast
5:36 AM 37.4 °F 28.5 °F 33.8 °F 87% 30.10 in 10.0 mi WNW 15.0 mph - N/A   Overcast
5:51 AM 37.0 °F 27.7 °F 33.1 °F 86% 30.11 in 10.0 mi WNW 16.1 mph 21.9 mph N/A   Overcast
6:51 AM 35.1 °F 26.9 °F 32.0 °F 89% 30.14 in 10.0 mi WNW 11.5 mph 21.9 mph N/A   Overcast
7:51 AM 34.0 °F 24.6 °F 30.0 °F 85% 30.19 in 10.0 mi WNW 13.8 mph - N/A   Overcast
8:51 AM 34.0 °F 23.4 °F 26.1 °F 73% 30.23 in 10.0 mi West 17.3 mph 21.9 mph N/A   Overcast
9:51 AM 34.0 °F 24.6 °F 23.0 °F 64% 30.27 in 10.0 mi WNW 13.8 mph 21.9 mph N/A   Overcast
10:51 AM 34.0 °F 24.6 °F 25.0 °F 70% 30.30 in 10.0 mi WNW 13.8 mph - N/A   Overcast
11:51 AM 33.1 °F 23.9 °F 24.1 °F 70% 30.31 in 10.0 mi WNW 12.7 mph 20.7 mph N/A   Overcast
12:51 PM 34.0 °F 24.6 °F 21.9 °F 61% 30.30 in 10.0 mi West 13.8 mph - N/A   Overcast
1:51 PM 34.0 °F 25.5 °F 21.9 °F 61% 30.31 in 9.0 mi West 11.5 mph - N/A   Overcast
2:51 PM 34.0 °F 25.0 °F 21.0 °F 59% 30.32 in 10.0 mi West 12.7 mph - N/A   Overcast
3:42 PM 33.8 °F 25.8 °F 19.4 °F 56% 30.30 in 10.0 mi WNW 10.4 mph - N/A   Overcast
3:51 PM 33.1 °F 24.9 °F 21.0 °F 61% 30.32 in 10.0 mi WNW 10.4 mph - N/A   Overcast
4:51 PM 33.1 °F 26.1 °F 21.0 °F 61% 30.34 in 10.0 mi West 8.1 mph - N/A   Mostly Cloudy
5:47 PM 32.0 °F 23.0 °F 21.2 °F 64% 30.31 in 10.0 mi WNW 11.5 mph - N/A   Mostly Cloudy
5:51 PM 32.0 °F 23.6 °F 21.0 °F 64% 30.34 in 10.0 mi West 10.4 mph - N/A   Mostly Cloudy
6:29 PM 30.2 °F 21.9 °F 19.4 °F 64% 30.33 in 10.0 mi WNW 9.2 mph - N/A   Overcast
6:51 PM 30.9 °F 20.7 °F 19.9 °F 64% 30.36 in 10.0 mi West 13.8 mph - N/A   Overcast
7:04 PM 30.2 °F 20.8 °F 19.4 °F 64% 30.34 in 10.0 mi West 11.5 mph - N/A   Overcast
7:51 PM 30.9 °F 22.2 °F 19.9 °F 64% 30.36 in 10.0 mi West 10.4 mph - N/A   Overcast
8:51 PM 30.0 °F 21.1 °F 18.0 °F 61% 30.35 in 10.0 mi West 10.4 mph - N/A   Overcast
9:51 PM 30.0 °F 20.0 °F 18.0 °F 61% 30.35 in 10.0 mi WNW 12.7 mph - N/A   Overcast
10:51 PM 28.9 °F 19.8 °F 18.0 °F 64% 30.36 in 10.0 mi West 10.4 mph - N/A   Overcast
11:51 PM 28.9 °F 19.8 °F 17.1 °F 61% 30.36 in 10.0 mi West 10.4 mph - N/A   Overcast